User: anonymous   Login
Location: Oshawa
(43.9000°N, 78.8670°W)
Time: 06:10:26
(UTC-04:00)
Language:

SPOT 5 - Orbit

View from above orbital plane
View from above orbital plane
View from above satellite
View from above satellite

Ground track
Ground track

The orbit data is extracted from the following two-line orbital elements,

1 27421U 02021A   16238.76036525  .00000063  00000-0  25415-4 0  9995
2 27421  98.4499 295.0524 0135929 152.0213 208.8369 14.51811875742809
Epoch (UTC): 25 August 2016 18:14:55
Eccentricity: 0.0135929
inclination: 98.4499°
perigee height: 623 km
apogee height: 816 km
right ascension of ascending node: 295.0524°
argument of perigee: 152.0213°
revolutions per day: 14.51811875
mean anomaly at epoch: 208.8369°
orbit number at epoch: 74280

The dashed part of the orbit path shows where the satellite is in the earth's shadow,  

DLR